This is the latest recevied weather packets stored in our database for station/object EW8324. If no packets are shown the sender has not sent any weather packets the latest 10 day(s).
| Time | Temp. | Humidity | Pressure | Rain* | Wind** | Luminosity | Snow |
|---|---|---|---|---|---|---|---|
| 1777834170 | 27.78° C | 35% | 1016.7 hPa | 0.25 mm | - | 934 W/m² | - |
| 1777833867 | 27.78° C | 39% | 1016.7 hPa | 0.25 mm | - | 935 W/m² | - |
| 1777833570 | 27.78° C | 37% | 1016.8 hPa | 0.25 mm | - | 934 W/m² | - |
| 1777833324 | 28.33° C | 37% | 1016.8 hPa | 0.25 mm | - | - | - |
| 1777832667 | 27.78° C | 41% | 1017 hPa | 0.51 mm | - | 927 W/m² | - |
| 1777832065 | 27.78° C | 40% | 1017.2 hPa | 0.25 mm | - | - | - |
| 1777831773 | 27.22° C | 39% | 1017.2 hPa | 0.25 mm | - | 932 W/m² | - |
| 1777831464 | 27.22° C | 40% | 1017.4 hPa | 0.25 mm | - | 930 W/m² | - |
| 1777831170 | 27.78° C | 38% | 1017.4 hPa | 0.25 mm | - | 930 W/m² | - |
| 1777830865 | 27.78° C | 41% | 1017.4 hPa | 0.51 mm | - | 921 W/m² | - |
| 1777830630 | 27.22° C | 44% | 1017.6 hPa | 0.51 mm | - | 923 W/m² | - |
| 1777830265 | 27.22° C | 36% | 1017.8 hPa | 0.51 mm | - | 923 W/m² | - |
| 1777829969 | 27.78° C | 39% | 1017.9 hPa | 0.51 mm | - | 913 W/m² | - |
| 1777829664 | 27.22° C | 38% | 1017.9 hPa | 0.51 mm | - | 913 W/m² | - |
| 1777829367 | 27.22° C | 38% | 1018.1 hPa | 0.25 mm | - | 913 W/m² | - |
| 1777829063 | 27.22° C | 39% | 1018.1 hPa | 0.25 mm | - | 904 W/m² | - |
| 1777828780 | 27.22° C | 38% | 1018.2 hPa | 0.25 mm | - | 902 W/m² | - |
| 1777828462 | 27.22° C | 38% | 1018.3 hPa | 0.25 mm | - | 899 W/m² | - |
| 1777828169 | 27.22° C | 41% | 1018.2 hPa | 0.51 mm | - | - | - |
| 1777827865 | 27.22° C | 38% | 1018.3 hPa | 0.51 mm | - | 883 W/m² | - |
| 1777827564 | 27.22° C | 40% | 1018.2 hPa | 0.51 mm | - | 879 W/m² | - |
| 1777827319 | 26.67° C | 44% | 1018.3 hPa | 0.25 mm | - | 870 W/m² | - |
| 1777826968 | 26.67° C | 41% | 1018.3 hPa | 0.25 mm | - | 869 W/m² | - |
| 1777826665 | 26.67° C | 39% | 1018.4 hPa | 0.25 mm | - | 858 W/m² | - |
| 1777826365 | 27.22° C | 41% | 1018.4 hPa | 0.25 mm | - | 844 W/m² | - |
* Rain latest hour (hover to see other rain measurements)
** Current wind speed in m/s (hover to see current wind gust speed)